| time (UTC) | temp F | wind direction | speed knots | gust knots | rain 1hr in | rain 24hr in | rain mn in | humidity % | barometer mb |
| 20260831152032 | 90 | 242 | 4.3 | 8.7 | 0.00 | 0.00 | 0.00 | 40 | 1017.4 |
| 20260831151531 | 90 | 229 | 2.6 | 7.8 | 0.00 | 0.00 | 0.00 | 40 | 1017.4 |
| 20260831151031 | 90 | 8 | 1.7 | 5.2 | 0.00 | 0.00 | 0.00 | 41 | 1017.5 |
| 20260831150526 | 89 | 183 | 3.5 | 7.0 | 0.00 | 0.00 | 0.00 | 41 | 1017.3 |
| 20260831150022 | 89 | 314 | 1.7 | 8.7 | 0.00 | 0.00 | 0.00 | 41 | 1017.4 |
| 20260831145516 | 89 | 148 | 1.7 | 4.3 | 0.00 | 0.00 | 0.00 | 41 | 1017.5 |
| 20260831145013 | 88 | 194 | 0.0 | 3.5 | 0.00 | 0.00 | 0.00 | 42 | 1017.5 |
| 20260831144508 | 88 | 359 | 1.7 | 7.8 | 0.00 | 0.00 | 0.00 | 42 | 1017.7 |
| 20260831144003 | 87 | 82 | 0.0 | 3.5 | 0.00 | 0.00 | 0.00 | 43 | 1017.8 |
| 20260831143457 | 86 | 218 | 2.6 | 3.5 | 0.00 | 0.00 | 0.00 | 44 | 1017.6 |
| 20260831142953 | 85 | 48 | 1.7 | 6.1 | 0.00 | 0.00 | 0.00 | 46 | 1017.4 |
| 20260831142449 | 84 | 258 | 1.7 | 4.3 | 0.00 | 0.00 | 0.00 | 47 | 1017.5 |
| 20260831141944 | 83 | 194 | 2.6 | 7.0 | 0.00 | 0.00 | 0.00 | 47 | 1017.5 |
| 20260831141443 | 83 | 250 | 1.7 | 5.2 | 0.00 | 0.00 | 0.00 | 48 | 1017.5 |
| 20260831140939 | 83 | 252 | 1.7 | 4.3 | 0.00 | 0.00 | 0.00 | 49 | 1017.6 |
| 20260831140433 | 82 | 271 | 2.6 | 2.6 | 0.00 | 0.00 | 0.00 | 49 | 1017.5 |
| 20260831135932 | 82 | 207 | 1.7 | 3.5 | 0.00 | 0.00 | 0.00 | 49 | 1017.6 |
| 20260831135431 | 81 | 214 | 0.0 | 3.5 | 0.00 | 0.00 | 0.00 | 50 | 1017.3 |
| 20260831134926 | 81 | 224 | 1.7 | 2.6 | 0.00 | 0.00 | 0.00 | 51 | 1017.5 |
| 20260831134423 | 81 | 259 | 0.9 | 2.6 | 0.00 | 0.00 | 0.00 | 51 | 1017.4 |
| 20260831133922 | 80 | 256 | 0.0 | 4.3 | 0.00 | 0.00 | 0.00 | 52 | 1017.5 |
| 20260831133417 | 79 | 247 | 0.0 | 3.5 | 0.00 | 0.00 | 0.00 | 52 | 1017.3 |
| 20260831132917 | 79 | 200 | 0.9 | 1.7 | 0.00 | 0.00 | 0.00 | 53 | 1017.4 |
| 20260831132413 | 78 | 187 | 0.9 | 2.6 | 0.00 | 0.00 | 0.00 | 54 | 1017.5 |
| 20260831131912 | 78 | 239 | 0.9 | 3.5 | 0.00 | 0.00 | 0.00 | 55 | 1017.2 |
| 20260831131408 | 77 | 255 | 0.0 | 1.7 | 0.00 | 0.00 | 0.00 | 56 | 1017.2 |
| 20260831130903 | 77 | 299 | 0.0 | 3.5 | 0.00 | 0.00 | 0.00 | 56 | 1017.0 |
| 20260831130359 | 76 | 296 | 0.0 | 1.7 | 0.00 | 0.00 | 0.00 | 58 | 1016.7 |
| 20260831125857 | 76 | 331 | 0.9 | 1.7 | 0.00 | 0.00 | 0.00 | 58 | 1017.1 |
| 20260831125353 | 75 | 37 | 0.9 | 1.7 | 0.00 | 0.00 | 0.00 | 59 | 1017.0 |
| 20260831124848 | 75 | 205 | 0.0 | 1.7 | 0.00 | 0.00 | 0.00 | 60 | 1017.1 |
| 20260831124345 | 74 | 38 | 0.0 | 1.7 | 0.00 | 0.00 | 0.00 | 60 | 1016.8 |
| 20260831123844 | 74 | 1 | 0.0 | 1.7 | 0.00 | 0.00 | 0.00 | 61 | 1017.0 |
| 20260831123343 | 73 | 334 | 0.9 | 1.7 | 0.00 | 0.00 | 0.00 | 62 | 1016.7 |
| 20260831122838 | 73 | 321 | 0.0 | 0.9 | 0.00 | 0.00 | 0.00 | 62 | 1016.7 |
| 20260831122334 | 73 | 343 | 0.0 | 0.0 | 0.00 | 0.00 | 0.00 | 62 | 1016.8 |
| 20260831121834 | 73 | 242 | 0.0 | 0.9 | 0.00 | 0.00 | 0.00 | 62 | 1016.7 |
| 20260831121330 | 73 | 305 | 0.0 | 0.9 | 0.00 | 0.00 | 0.00 | 62 | 1016.5 |
| 20260831120826 | 73 | 312 | 0.9 | 0.9 | 0.00 | 0.00 | 0.00 | 62 | 1016.6 |
| 20260831120320 | 73 | 343 | 0.0 | 1.7 | 0.00 | 0.00 | 0.00 | 62 | 1016.5 |
| 20260831115815 | 73 | 62 | 0.0 | 0.9 | 0.00 | 0.00 | 0.00 | 61 | 1016.6 |
| 20260831115312 | 73 | 37 | 0.0 | 0.0 | 0.00 | 0.00 | 0.00 | 61 | 1016.7 |
| 20260831114810 | 73 | 335 | 0.9 | 0.9 | 0.00 | 0.00 | 0.00 | 61 | 1016.8 |
| 20260831114309 | 73 | 333 | 0.0 | 1.7 | 0.00 | 0.00 | 0.00 | 61 | 1016.5 |
| 20260831113806 | 73 | 341 | 0.9 | 1.7 | 0.00 | 0.00 | 0.00 | 61 | 1016.7 |
| 20260831113300 | 73 | 287 | 0.0 | 0.9 | 0.00 | 0.00 | 0.00 | 61 | 1016.5 |
| 20260831112759 | 74 | 327 | 0.0 | 0.0 | 0.00 | 0.00 | 0.00 | 61 | 1016.5 |
| 20260831112255 | 74 | 339 | 0.0 | 0.0 | 0.00 | 0.00 | 0.00 | 61 | 1016.4 |
| 20260831111750 | 74 | 309 | 0.0 | 0.0 | 0.00 | 0.00 | 0.00 | 60 | 1016.4 |
| 20260831111246 | 74 | 309 | 0.0 | 0.0 | 0.00 | 0.00 | 0.00 | 60 | 1016.6 |
| 20260831110742 | 75 | 307 | 0.0 | 0.9 | 0.00 | 0.00 | 0.00 | 59 | 1016.5 |
| 20260831110237 | 75 | 306 | 0.9 | 1.7 | 0.00 | 0.00 | 0.00 | 58 | 1016.5 |
| 20260831105735 | 76 | 266 | 0.0 | 0.9 | 0.00 | 0.00 | 0.00 | 57 | 1016.5 |
| 20260831105231 | 76 | 337 | 0.9 | 0.9 | 0.00 | 0.00 | 0.00 | 57 | 1016.3 |
| 20260831104726 | 76 | 293 | 0.0 | 1.7 | 0.00 | 0.00 | 0.00 | 56 | 1016.2 |
| 20260831104223 | 76 | 255 | 0.9 | 1.7 | 0.00 | 0.00 | 0.00 | 56 | 1016.3 |
| 20260831103722 | 76 | 273 | 1.7 | 1.7 | 0.00 | 0.00 | 0.00 | 56 | 1016.3 |
| 20260831103218 | 76 | 231 | 0.9 | 1.7 | 0.00 | 0.00 | 0.00 | 56 | 1015.8 |
| 20260831102718 | 76 | 217 | 1.7 | 2.6 | 0.00 | 0.00 | 0.00 | 56 | 1016.0 |
| 20260831102213 | 76 | 210 | 1.7 | 1.7 | 0.00 | 0.00 | 0.00 | 56 | 1016.0 |
| 20260831101708 | 76 | 216 | 0.9 | 2.6 | 0.00 | 0.00 | 0.00 | 56 | 1016.3 |
| 20260831101204 | 76 | 312 | 0.0 | 3.5 | 0.00 | 0.00 | 0.00 | 57 | 1016.0 |
| 20260831100700 | 76 | 201 | 0.0 | 2.6 | 0.00 | 0.00 | 0.00 | 57 | 1015.9 |
| 20260831100156 | 76 | 255 | 0.9 | 2.6 | 0.00 | 0.00 | 0.00 | 56 | 1016.0 |
| 20260831095653 | 77 | 264 | 0.0 | 2.6 | 0.00 | 0.00 | 0.00 | 56 | 1016.0 |
| 20260831095149 | 77 | 281 | 0.9 | 1.7 | 0.00 | 0.00 | 0.00 | 56 | 1015.8 |
| 20260831094644 | 77 | 275 | 1.7 | 2.6 | 0.00 | 0.00 | 0.00 | 56 | 1015.9 |
| 20260831094140 | 77 | 187 | 0.0 | 3.5 | 0.00 | 0.00 | 0.00 | 56 | 1015.6 |
| 20260831093635 | 77 | 237 | 0.0 | 3.5 | 0.00 | 0.00 | 0.00 | 55 | 1015.5 |
| 20260831093131 | 77 | 151 | 0.0 | 2.6 | 0.00 | 0.00 | 0.00 | 55 | 1015.7 |
| 20260831092627 | 78 | 252 | 0.9 | 3.5 | 0.00 | 0.00 | 0.00 | 55 | 1015.6 |
| 20260831092123 | 78 | 224 | 0.0 | 1.7 | 0.00 | 0.00 | 0.00 | 55 | 1015.4 |
| 20260831091622 | 78 | 276 | 0.9 | 3.5 | 0.00 | 0.00 | 0.00 | 55 | 1015.5 |
| 20260831091118 | 78 | 22 | 0.0 | 1.7 | 0.00 | 0.00 | 0.00 | 55 | 1015.5 |
| 20260831090613 | 78 | 250 | 0.9 | 1.7 | 0.00 | 0.00 | 0.00 | 54 | 1015.3 |
| 20260831090109 | 78 | 255 | 0.0 | 2.6 | 0.00 | 0.00 | 0.00 | 54 | 1015.7 |
| 20260831085604 | 79 | 41 | 0.9 | 2.6 | 0.00 | 0.00 | 0.00 | 54 | 1015.3 |
| 20260831085059 | 79 | 243 | 1.7 | 3.5 | 0.00 | 0.00 | 0.00 | 53 | 1015.5 |
| 20260831084555 | 79 | 215 | 1.7 | 2.6 | 0.00 | 0.00 | 0.00 | 53 | 1015.6 |
| 20260831084051 | 79 | 197 | 3.5 | 3.5 | 0.00 | 0.00 | 0.00 | 52 | 1015.3 |
| 20260831083547 | 79 | 265 | 1.7 | 3.5 | 0.00 | 0.00 | 0.00 | 52 | 1015.4 |
| 20260831083042 | 79 | 222 | 0.0 | 3.5 | 0.00 | 0.00 | 0.00 | 52 | 1015.4 |
| 20260831082541 | 79 | 258 | 0.9 | 2.6 | 0.00 | 0.00 | 0.00 | 52 | 1015.2 |
| 20260831082037 | 80 | 250 | 1.7 | 2.6 | 0.00 | 0.00 | 0.00 | 52 | 1015.1 |
| 20260831081532 | 80 | 196 | 0.9 | 4.3 | 0.00 | 0.00 | 0.00 | 52 | 1015.1 |
| 20260831081029 | 80 | 242 | 0.9 | 2.6 | 0.00 | 0.00 | 0.00 | 51 | 1015.1 |
| 20260831080528 | 80 | 222 | 0.9 | 2.6 | 0.00 | 0.00 | 0.00 | 51 | 1015.0 |
| 20260831080024 | 80 | 192 | 0.9 | 3.5 | 0.00 | 0.00 | 0.00 | 51 | 1015.0 |
| 20260831075519 | 81 | 281 | 0.0 | 1.7 | 0.00 | 0.00 | 0.00 | 50 | 1015.0 |
| 20260831075015 | 81 | 294 | 1.7 | 1.7 | 0.00 | 0.00 | 0.00 | 50 | 1014.9 |
| 20260831074514 | 81 | 199 | 0.0 | 1.7 | 0.00 | 0.00 | 0.00 | 50 | 1014.9 |
| 20260831074014 | 81 | 315 | 0.9 | 1.7 | 0.00 | 0.00 | 0.00 | 49 | 1014.7 |
| 20260831073509 | 81 | 243 | 1.7 | 2.6 | 0.00 | 0.00 | 0.00 | 49 | 1014.9 |
| 20260831073008 | 81 | 223 | 0.0 | 2.6 | 0.00 | 0.00 | 0.00 | 49 | 1015.0 |
| 20260831072503 | 82 | 110 | 0.0 | 3.5 | 0.00 | 0.00 | 0.00 | 49 | 1015.0 |
| 20260831072000 | 82 | 343 | 0.0 | 2.6 | 0.00 | 0.00 | 0.00 | 49 | 1014.8 |
| 20260831071458 | 82 | 353 | 0.9 | 1.7 | 0.00 | 0.00 | 0.00 | 49 | 1015.2 |
| 20260831070954 | 82 | 255 | 0.0 | 3.5 | 0.00 | 0.00 | 0.00 | 49 | 1015.2 |
| 20260831070452 | 82 | 323 | 0.9 | 1.7 | 0.00 | 0.00 | 0.00 | 48 | 1015.2 |
| 20260831065952 | 82 | 153 | 0.9 | 3.5 | 0.00 | 0.00 | 0.00 | 48 | 1015.2 |
| 20260831065450 | 82 | 301 | 1.7 | 2.6 | 0.00 | 0.00 | 0.00 | 48 | 1015.1 |
| 20260831064945 | 83 | 281 | 1.7 | 1.7 | 0.00 | 0.00 | 0.00 | 47 | 1015.0 |
| 20260831064440 | 83 | 303 | 1.7 | 2.6 | 0.00 | 0.00 | 0.00 | 47 | 1015.3 |
| 20260831063937 | 83 | 253 | 1.7 | 3.5 | 0.00 | 0.00 | 0.00 | 46 | 1015.1 |
| 20260831063432 | 84 | 180 | 0.0 | 3.5 | 0.00 | 0.00 | 0.00 | 46 | 1015.4 |
| 20260831062931 | 84 | 205 | 0.9 | 2.6 | 0.00 | 0.00 | 0.00 | 45 | 1015.3 |
| 20260831062429 | 84 | 186 | 1.7 | 4.3 | 0.00 | 0.00 | 0.00 | 45 | 1015.3 |
| 20260831061926 | 85 | 231 | 1.7 | 3.5 | 0.00 | 0.00 | 0.00 | 45 | 1015.2 |
| 20260831061424 | 85 | 213 | 1.7 | 3.5 | 0.00 | 0.00 | 0.00 | 44 | 1015.2 |
| 20260831060921 | 85 | 247 | 0.0 | 3.5 | 0.00 | 0.00 | 0.00 | 44 | 1015.0 |
| 20260831060421 | 85 | 204 | 1.7 | 3.5 | 0.00 | 0.00 | 0.00 | 43 | 1015.0 |
| 20260831055921 | 85 | 306 | 0.9 | 2.6 | 0.00 | 0.00 | 0.00 | 43 | 1014.8 |
| 20260831055416 | 86 | 227 | 1.7 | 4.3 | 0.00 | 0.00 | 0.00 | 43 | 1014.9 |
| 20260831054911 | 86 | 194 | 1.7 | 2.6 | 0.00 | 0.00 | 0.00 | 43 | 1014.7 |
| 20260831054406 | 86 | 152 | 3.5 | 3.5 | 0.00 | 0.00 | 0.00 | 42 | 1014.2 |
| 20260831053905 | 86 | 175 | 0.9 | 4.3 | 0.00 | 0.00 | 0.00 | 42 | 1014.1 |
| 20260831053403 | 87 | 48 | 1.7 | 3.5 | 0.00 | 0.00 | 0.00 | 42 | 1014.0 |
| 20260831052859 | 87 | 358 | 1.7 | 3.5 | 0.00 | 0.00 | 0.00 | 41 | 1013.8 |
| 20260831052358 | 87 | 43 | 0.0 | 7.0 | 0.00 | 0.00 | 0.00 | 41 | 1013.8 |
| 20260831051856 | 87 | 151 | 2.6 | 4.3 | 0.00 | 0.00 | 0.00 | 41 | 1013.7 |
| 20260831051355 | 87 | 268 | 0.9 | 3.5 | 0.00 | 0.00 | 0.00 | 41 | 1013.8 |
| 20260831050850 | 87 | 332 | 0.9 | 1.7 | 0.00 | 0.00 | 0.00 | 41 | 1013.8 |
| 20260831050349 | 87 | 326 | 0.0 | 3.5 | 0.00 | 0.00 | 0.00 | 40 | 1013.5 |
| 20260831045844 | 87 | 321 | 0.0 | 2.6 | 0.00 | 0.00 | 0.00 | 40 | 1013.6 |
| 20260831045343 | 87 | 193 | 1.7 | 3.5 | 0.00 | 0.00 | 0.00 | 40 | 1013.6 |
| 20260831044838 | 87 | 277 | 1.7 | 4.3 | 0.00 | 0.00 | 0.00 | 40 | 1013.6 |
| 20260831044338 | 87 | 22 | 1.7 | 1.7 | 0.00 | 0.00 | 0.00 | 40 | 1013.8 |
| 20260831043835 | 87 | 358 | 1.7 | 2.6 | 0.00 | 0.00 | 0.00 | 40 | 1013.7 |
| 20260831043334 | 87 | 110 | 0.9 | 2.6 | 0.00 | 0.00 | 0.00 | 40 | 1013.5 |
| 20260831042829 | 88 | 64 | 0.0 | 1.7 | 0.00 | 0.00 | 0.00 | 40 | 1013.4 |
| 20260831042329 | 88 | 285 | 2.6 | 2.6 | 0.00 | 0.00 | 0.00 | 40 | 1013.5 |
| 20260831041824 | 88 | 349 | 1.7 | 2.6 | 0.00 | 0.00 | 0.00 | 40 | 1013.5 |
| 20260831041323 | 88 | 308 | 0.0 | 2.6 | 0.00 | 0.00 | 0.00 | 40 | 1013.4 |
| 20260831040818 | 88 | 108 | 0.0 | 1.7 | 0.00 | 0.00 | 0.00 | 39 | 1013.5 |
| 20260831040318 | 88 | 143 | 1.7 | 3.5 | 0.00 | 0.00 | 0.00 | 39 | 1013.1 |
| 20260831035816 | 88 | 18 | 1.7 | 2.6 | 0.00 | 0.00 | 0.00 | 39 | 1013.4 |
| 20260831035315 | 88 | 26 | 0.9 | 3.5 | 0.00 | 0.00 | 0.00 | 39 | 1013.3 |
| 20260831034810 | 89 | 19 | 0.0 | 2.6 | 0.00 | 0.00 | 0.00 | 39 | 1013.4 |
| 20260831034305 | 89 | 47 | 0.9 | 2.6 | 0.00 | 0.00 | 0.00 | 39 | 1013.4 |
| 20260831033800 | 89 | 95 | 0.0 | 3.5 | 0.00 | 0.00 | 0.00 | 39 | 1013.3 |
| 20260831033300 | 89 | 47 | 0.9 | 1.7 | 0.00 | 0.00 | 0.00 | 39 | 1013.3 |
| 20260831032756 | 89 | 277 | 0.0 | 2.6 | 0.00 | 0.00 | 0.00 | 38 | 1013.4 |
| 20260831032250 | 89 | 133 | 1.7 | 1.7 | 0.00 | 0.00 | 0.00 | 38 | 1013.4 |
| 20260831031746 | 89 | 329 | 0.0 | 2.6 | 0.00 | 0.00 | 0.00 | 38 | 1013.5 |
| 20260831031245 | 89 | 127 | 0.9 | 2.6 | 0.00 | 0.00 | 0.00 | 38 | 1013.6 |
| 20260831030740 | 89 | 3 | 1.7 | 2.6 | 0.00 | 0.00 | 0.00 | 38 | 1013.3 |
| 20260831030238 | 90 | 221 | 1.7 | 2.6 | 0.00 | 0.00 | 0.00 | 37 | 1013.6 |
| 20260831025737 | 90 | 314 | 1.7 | 1.7 | 0.00 | 0.00 | 0.00 | 37 | 1013.4 |
| 20260831025232 | 90 | 0 | 0.0 | 2.6 | 0.00 | 0.00 | 0.00 | 36 | 1013.4 |
| 20260831024728 | 90 | 25 | 2.6 | 2.6 | 0.00 | 0.00 | 0.00 | 36 | 1013.4 |
| 20260831024226 | 91 | 15 | 0.0 | 1.7 | 0.00 | 0.00 | 0.00 | 35 | 1013.2 |
| 20260831023726 | 91 | 91 | 2.6 | 2.6 | 0.00 | 0.00 | 0.00 | 35 | 1013.3 |
| 20260831023225 | 91 | 342 | 0.9 | 2.6 | 0.00 | 0.00 | 0.00 | 35 | 1013.3 |
| 20260831022721 | 91 | 5 | 0.9 | 1.7 | 0.00 | 0.00 | 0.00 | 34 | 1013.0 |
| 20260831022220 | 91 | 338 | 0.9 | 2.6 | 0.00 | 0.00 | 0.00 | 34 | 1013.3 |
| 20260831021720 | 92 | 48 | 0.0 | 3.5 | 0.00 | 0.00 | 0.00 | 34 | 1012.9 |
| 20260831021220 | 92 | 359 | 0.9 | 4.3 | 0.00 | 0.00 | 0.00 | 34 | 1013.2 |
| 20260831020717 | 92 | 35 | 0.0 | 2.6 | 0.00 | 0.00 | 0.00 | 34 | 1012.8 |
| 20260831020216 | 92 | 301 | 1.7 | 2.6 | 0.00 | 0.00 | 0.00 | 34 | 1012.8 |
| 20260831015712 | 92 | 17 | 0.9 | 2.6 | 0.00 | 0.00 | 0.00 | 34 | 1012.5 |
| 20260831015207 | 92 | 124 | 0.0 | 3.5 | 0.00 | 0.00 | 0.00 | 34 | 1012.6 |
| 20260831014702 | 93 | 250 | 0.9 | 4.3 | 0.00 | 0.00 | 0.00 | 33 | 1012.5 |
| 20260831014156 | 93 | 215 | 1.7 | 5.2 | 0.00 | 0.00 | 0.00 | 33 | 1012.4 |
| 20260831013653 | 93 | 206 | 0.0 | 2.6 | 0.00 | 0.00 | 0.00 | 33 | 1012.3 |
| 20260831013152 | 93 | 104 | 1.7 | 3.5 | 0.00 | 0.00 | 0.00 | 33 | 1012.2 |
| 20260831012647 | 94 | 41 | 0.9 | 2.6 | 0.00 | 0.00 | 0.00 | 33 | 1012.4 |
| 20260831012143 | 94 | 101 | 1.7 | 2.6 | 0.00 | 0.00 | 0.00 | 33 | 1012.1 |
| 20260831011641 | 94 | 53 | 1.7 | 3.5 | 0.00 | 0.00 | 0.00 | 33 | 1012.1 |
| 20260831011137 | 94 | 38 | 0.0 | 2.6 | 0.00 | 0.00 | 0.00 | 34 | 1012.2 |
| 20260831010633 | 95 | 354 | 0.9 | 2.6 | 0.00 | 0.00 | 0.00 | 33 | 1012.1 |
| 20260831010129 | 95 | 41 | 0.9 | 3.5 | 0.00 | 0.00 | 0.00 | 33 | 1012.0 |
| 20260831005628 | 96 | 37 | 1.7 | 2.6 | 0.00 | 0.00 | 0.00 | 33 | 1012.2 |
| 20260831005124 | 96 | 353 | 1.7 | 2.6 | 0.00 | 0.00 | 0.00 | 33 | 1012.1 |
| 20260831004619 | 97 | 351 | 1.7 | 5.2 | 0.00 | 0.00 | 0.00 | 32 | 1012.1 |
| 20260831004115 | 97 | 187 | 0.0 | 4.3 | 0.00 | 0.00 | 0.00 | 32 | 1012.2 |
| 20260831003611 | 98 | 120 | 2.6 | 3.5 | 0.00 | 0.00 | 0.00 | 32 | 1012.1 |
| 20260831003107 | 98 | 8 | 1.7 | 3.5 | 0.00 | 0.00 | 0.00 | 32 | 1012.0 |
| 20260831002605 | 99 | 120 | 1.7 | 3.5 | 0.00 | 0.00 | 0.00 | 31 | 1012.1 |
| 20260831002100 | 100 | 224 | 0.9 | 1.7 | 0.00 | 0.00 | 0.00 | 30 | 1011.7 |
| 20260831001556 | 100 | 4 | 1.7 | 2.6 | 0.00 | 0.00 | 0.00 | 30 | 1011.8 |
| 20260831001052 | 101 | 222 | 3.5 | 3.5 | 0.00 | 0.00 | 0.00 | 30 | 1012.3 |
| 20260831000548 | 101 | 1 | 1.7 | 5.2 | 0.00 | 0.00 | 0.00 | 29 | 1011.8 |
| 20260831000048 | 103 | 48 | 0.0 | 7.0 | 0.00 | 0.00 | 0.00 | 28 | 1012.1 |
| 20260830235547 | 103 | 165 | 1.7 | 7.0 | 0.00 | 0.00 | 0.00 | 27 | 1012.1 |
| 20260830235042 | 103 | 215 | 3.5 | 5.2 | 0.00 | 0.00 | 0.00 | 26 | 1012.1 |
| 20260830234543 | 104 | 246 | 3.5 | 4.3 | 0.00 | 0.00 | 0.00 | 26 | 1012.0 |
| 20260830234038 | 104 | 231 | 1.7 | 5.2 | 0.00 | 0.00 | 0.00 | 26 | 1011.8 |
| 20260830233533 | 104 | 225 | 1.7 | 14.8 | 0.00 | 0.00 | 0.00 | 26 | 1011.6 |
| 20260830233029 | 105 | 236 | 1.7 | 4.3 | 0.00 | 0.00 | 0.00 | 25 | 1012.0 |
| 20260830232525 | 105 | 126 | 3.5 | 7.0 | 0.00 | 0.00 | 0.00 | 25 | 1011.6 |
| 20260830232021 | 105 | 217 | 2.6 | 5.2 | 0.00 | 0.00 | 0.00 | 25 | 1011.7 |
| 20260830231517 | 105 | 202 | 4.3 | 4.3 | 0.00 | 0.00 | 0.00 | 25 | 1011.5 |
| 20260830231015 | 105 | 210 | 0.0 | 7.0 | 0.00 | 0.00 | 0.00 | 25 | 1011.5 |
| 20260830230511 | 106 | 187 | 1.7 | 5.2 | 0.00 | 0.00 | 0.00 | 25 | 1011.4 |
| 20260830230011 | 106 | 267 | 0.9 | 7.0 | 0.00 | 0.00 | 0.00 | 25 | 1011.5 |
| 20260830225506 | 106 | 262 | 3.5 | 5.2 | 0.00 | 0.00 | 0.00 | 25 | 1011.3 |
| 20260830225006 | 106 | 264 | 2.6 | 5.2 | 0.00 | 0.00 | 0.00 | 25 | 1011.4 |
| 20260830224504 | 107 | 237 | 4.3 | 7.0 | 0.00 | 0.00 | 0.00 | 25 | 1011.6 |
| 20260830224001 | 107 | 143 | 3.5 | 7.8 | 0.00 | 0.00 | 0.00 | 25 | 1011.2 |
| 20260830223458 | 107 | 91 | 1.7 | 5.2 | 0.00 | 0.00 | 0.00 | 25 | 1011.3 |
| 20260830222957 | 106 | 177 | 0.0 | 2.6 | 0.00 | 0.00 | 0.00 | 25 | 1011.4 |
| 20260830222452 | 107 | 224 | 5.2 | 7.8 | 0.00 | 0.00 | 0.00 | 25 | 1011.4 |
| 20260830221948 | 107 | 207 | 4.3 | 6.1 | 0.00 | 0.00 | 0.00 | 25 | 1011.2 |
| 20260830221444 | 106 | 162 | 3.5 | 5.2 | 0.00 | 0.00 | 0.00 | 24 | 1011.6 |
| 20260830220939 | 106 | 223 | 1.7 | 8.7 | 0.00 | 0.00 | 0.00 | 25 | 1011.3 |
| 20260830220439 | 106 | 344 | 1.7 | 6.1 | 0.00 | 0.00 | 0.00 | 25 | 1011.3 |
| 20260830215937 | 107 | 218 | 1.7 | 7.8 | 0.00 | 0.00 | 0.00 | 25 | 1011.4 |
| 20260830215432 | 107 | 198 | 1.7 | 7.0 | 0.00 | 0.00 | 0.00 | 25 | 1011.4 |
| 20260830214927 | 107 | 209 | 6.1 | 6.1 | 0.00 | 0.00 | 0.00 | 25 | 1011.4 |
| 20260830214422 | 107 | 254 | 3.5 | 9.6 | 0.00 | 0.00 | 0.00 | 24 | 1011.3 |
| 20260830213922 | 107 | 330 | 1.7 | 5.2 | 0.00 | 0.00 | 0.00 | 24 | 1011.6 |
| 20260830213418 | 107 | 227 | 2.6 | 9.6 | 0.00 | 0.00 | 0.00 | 24 | 1011.5 |
| 20260830212913 | 107 | 131 | 2.6 | 10.4 | 0.00 | 0.00 | 0.00 | 24 | 1011.4 |
| 20260830212409 | 107 | 280 | 5.2 | 5.2 | 0.00 | 0.00 | 0.00 | 24 | 1011.6 |
| 20260830211908 | 107 | 214 | 3.5 | 11.3 | 0.00 | 0.00 | 0.00 | 24 | 1011.7 |
| 20260830211408 | 106 | 213 | 1.7 | 7.0 | 0.00 | 0.00 | 0.00 | 25 | 1011.6 |
| 20260830210904 | 106 | 226 | 3.5 | 8.7 | 0.00 | 0.00 | 0.00 | 25 | 1011.8 |
| 20260830210403 | 106 | 248 | 6.1 | 10.4 | 0.00 | 0.00 | 0.00 | 24 | 1011.8 |
| 20260830205901 | 107 | 235 | 4.3 | 5.2 | 0.00 | 0.00 | 0.00 | 24 | 1011.7 |
| 20260830205400 | 107 | 342 | 1.7 | 9.6 | 0.00 | 0.00 | 0.00 | 25 | 1011.6 |
| 20260830204856 | 107 | 191 | 3.5 | 7.8 | 0.00 | 0.00 | 0.00 | 24 | 1011.7 |
| 20260830204354 | 107 | 247 | 3.5 | 7.8 | 0.00 | 0.00 | 0.00 | 24 | 1011.7 |
| 20260830203850 | 107 | 273 | 2.6 | 10.4 | 0.00 | 0.00 | 0.00 | 24 | 1012.1 |
| 20260830203347 | 107 | 189 | 3.5 | 7.0 | 0.00 | 0.00 | 0.00 | 24 | 1012.2 |
| 20260830202845 | 107 | 222 | 4.3 | 9.6 | 0.00 | 0.00 | 0.00 | 24 | 1011.8 |
| 20260830202341 | 107 | 251 | 1.7 | 4.3 | 0.00 | 0.00 | 0.00 | 25 | 1011.7 |
| 20260830201837 | 106 | 229 | 5.2 | 9.6 | 0.00 | 0.00 | 0.00 | 24 | 1012.4 |
| 20260830201336 | 107 | 217 | 7.0 | 9.6 | 0.00 | 0.00 | 0.00 | 24 | 1012.3 |
| 20260830200831 | 106 | 226 | 4.3 | 9.6 | 0.00 | 0.00 | 0.00 | 24 | 1012.2 |
| 20260830200331 | 106 | 197 | 3.5 | 7.0 | 0.00 | 0.00 | 0.00 | 24 | 1012.4 |
| 20260830195827 | 106 | 99 | 1.7 | 5.2 | 0.00 | 0.00 | 0.00 | 25 | 1012.5 |
| 20260830195326 | 106 | 219 | 2.6 | 5.2 | 0.00 | 0.00 | 0.00 | 24 | 1012.4 |
| 20260830194825 | 105 | 209 | 1.7 | 8.7 | 0.00 | 0.00 | 0.00 | 25 | 1012.4 |
| 20260830194324 | 106 | 144 | 2.6 | 7.8 | 0.00 | 0.00 | 0.00 | 25 | 1012.5 |
| 20260830193820 | 105 | 129 | 3.5 | 9.6 | 0.00 | 0.00 | 0.00 | 26 | 1012.6 |
| 20260830193319 | 104 | 195 | 3.5 | 11.3 | 0.00 | 0.00 | 0.00 | 27 | 1012.6 |
| 20260830192816 | 105 | 190 | 3.5 | 14.8 | 0.00 | 0.00 | 0.00 | 26 | 1012.7 |
| 20260830192315 | 105 | 116 | 1.7 | 10.4 | 0.00 | 0.00 | 0.00 | 27 | 1012.7 |
| 20260830191811 | 105 | 291 | 3.5 | 10.4 | 0.00 | 0.00 | 0.00 | 26 | 1012.6 |
| 20260830191310 | 105 | 232 | 1.7 | 11.3 | 0.00 | 0.00 | 0.00 | 26 | 1012.8 |
| 20260830190806 | 105 | 101 | 1.7 | 7.8 | 0.00 | 0.00 | 0.00 | 27 | 1012.6 |
| 20260830190301 | 104 | 304 | 1.7 | 5.2 | 0.00 | 0.00 | 0.00 | 28 | 1012.9 |
| 20260830185759 | 103 | 201 | 7.0 | 11.3 | 0.00 | 0.00 | 0.00 | 27 | 1012.7 |
| 20260830185255 | 104 | 231 | 4.3 | 9.6 | 0.00 | 0.00 | 0.00 | 28 | 1013.1 |
| 20260830184755 | 104 | 196 | 3.5 | 9.6 | 0.00 | 0.00 | 0.00 | 28 | 1013.1 |
| 20260830184254 | 103 | 256 | 2.6 | 8.7 | 0.00 | 0.00 | 0.00 | 29 | 1013.3 |
| 20260830183750 | 103 | 212 | 4.3 | 7.0 | 0.00 | 0.00 | 0.00 | 30 | 1013.3 |
| 20260830183244 | 102 | 232 | 2.6 | 9.6 | 0.00 | 0.00 | 0.00 | 31 | 1013.1 |
| 20260830182745 | 102 | 210 | 9.6 | 13.0 | 0.00 | 0.00 | 0.00 | 30 | 1013.4 |
| 20260830182241 | 101 | 242 | 2.6 | 8.7 | 0.00 | 0.00 | 0.00 | 30 | 1013.2 |
| 20260830181737 | 101 | 199 | 5.2 | 14.8 | 0.00 | 0.00 | 0.00 | 31 | 1013.2 |
| 20260830181232 | 101 | 245 | 7.0 | 14.8 | 0.00 | 0.00 | 0.00 | 31 | 1013.5 |
| 20260830180731 | 101 | 193 | 5.2 | 16.5 | 0.00 | 0.00 | 0.00 | 31 | 1013.4 |
| 20260830180226 | 101 | 255 | 1.7 | 7.8 | 0.00 | 0.00 | 0.00 | 32 | 1013.5 |
| 20260830175725 | 101 | 284 | 0.9 | 9.6 | 0.00 | 0.00 | 0.00 | 32 | 1013.7 |
| 20260830175221 | 101 | 173 | 5.2 | 12.2 | 0.00 | 0.00 | 0.00 | 32 | 1013.7 |
| 20260830174715 | 100 | 168 | 3.5 | 8.7 | 0.00 | 0.00 | 0.00 | 32 | 1013.7 |
| 20260830174211 | 100 | 170 | 2.6 | 10.4 | 0.00 | 0.00 | 0.00 | 33 | 1013.6 |
| 20260830173711 | 99 | 291 | 0.9 | 16.5 | 0.00 | 0.00 | 0.00 | 34 | 1013.8 |
| 20260830173206 | 99 | 174 | 3.5 | 6.1 | 0.00 | 0.00 | 0.00 | 34 | 1013.9 |
| 20260830172703 | 99 | 216 | 6.1 | 12.2 | 0.00 | 0.00 | 0.00 | 33 | 1013.9 |
| 20260830172159 | 98 | 198 | 7.0 | 11.3 | 0.00 | 0.00 | 0.00 | 34 | 1014.0 |
| 20260830171659 | 98 | 24 | 1.7 | 11.3 | 0.00 | 0.00 | 0.00 | 35 | 1014.1 |
| 20260830171154 | 98 | 297 | 3.5 | 6.1 | 0.00 | 0.00 | 0.00 | 35 | 1014.3 |
| 20260830170649 | 98 | 87 | 2.6 | 8.7 | 0.00 | 0.00 | 0.00 | 35 | 1014.3 |
| 20260830170148 | 97 | 72 | 1.7 | 8.7 | 0.00 | 0.00 | 0.00 | 36 | 1014.0 |
| 20260830165643 | 97 | 71 | 2.6 | 11.3 | 0.00 | 0.00 | 0.00 | 36 | 1014.2 |
| 20260830165139 | 96 | 209 | 4.3 | 11.3 | 0.00 | 0.00 | 0.00 | 36 | 1014.3 |
| 20260830164635 | 96 | 162 | 2.6 | 10.4 | 0.00 | 0.00 | 0.00 | 36 | 1014.3 |
| 20260830164131 | 96 | 4 | 3.5 | 10.4 | 0.00 | 0.00 | 0.00 | 37 | 1014.6 |
| 20260830163628 | 95 | 211 | 3.5 | 9.6 | 0.00 | 0.00 | 0.00 | 37 | 1014.7 |
| 20260830163127 | 95 | 199 | 7.0 | 16.5 | 0.00 | 0.00 | 0.00 | 37 | 1014.7 |
| 20260830162622 | 95 | 196 | 5.2 | 6.1 | 0.00 | 0.00 | 0.00 | 38 | 1014.7 |
| 20260830162119 | 94 | 234 | 4.3 | 9.6 | 0.00 | 0.00 | 0.00 | 38 | 1014.9 |
| 20260830161618 | 94 | 175 | 2.6 | 11.3 | 0.00 | 0.00 | 0.00 | 39 | 1014.7 |
| 20260830161113 | 94 | 252 | 5.2 | 12.2 | 0.00 | 0.00 | 0.00 | 38 | 1014.6 |
| 20260830160609 | 94 | 250 | 4.3 | 7.0 | 0.00 | 0.00 | 0.00 | 39 | 1014.9 |
| 20260830160104 | 93 | 216 | 5.2 | 13.0 | 0.00 | 0.00 | 0.00 | 39 | 1014.8 |
| 20260830155600 | 92 | 209 | 6.1 | 7.0 | 0.00 | 0.00 | 0.00 | 40 | 1014.7 |
| 20260830155055 | 92 | 179 | 5.2 | 9.6 | 0.00 | 0.00 | 0.00 | 40 | 1014.7 |
| 20260830154550 | 92 | 212 | 2.6 | 14.8 | 0.00 | 0.00 | 0.00 | 41 | 1014.7 |
| 20260830154047 | 92 | 205 | 3.5 | 4.3 | 0.00 | 0.00 | 0.00 | 40 | 1014.6 |
| 20260830153543 | 91 | 173 | 2.6 | 11.3 | 0.00 | 0.00 | 0.00 | 42 | 1014.6 |
| 20260830153042 | 91 | 259 | 4.3 | 7.8 | 0.00 | 0.00 | 0.00 | 41 | 1014.8 |
| 20260830152537 | 90 | 175 | 1.7 | 6.1 | 0.00 | 0.00 | 0.00 | 42 | 1014.6 |